Wright-Patt AFB, OH

2:38 PM EST on December 11, 2017 (GMT -0500)
Wright-Patterson Air Force Base

Weather History for KFFO - July, 2014

Change the Weather History Date:

Thursday, July 10, 2014

  Actual Average Record
Temperature  
Mean Temperature 69 °F -  
Max Temperature 79 °F 81 °F 91 °F (2006)
Min Temperature 59 °F 60 °F 51 °F (1997)
Cooling Degree Days 4    
Growing Degree Days 19 (Base 50)    
Moisture  
Dew Point 58 °F    
Average Humidity 67    
Maximum Humidity 94    
Minimum Humidity 43    
Precipitation  
Precipitation 0.00 in - - ()
Sea Level Pressure  
Sea Level Pressure 30.11 in    
Wind  
Wind Speed 3 mph (North)    
Max Wind Speed 9 mph    
Max Gust Speed 17 mph    
Visibility 10 miles    
Events      
Averages and records for this station are not official NWS values.
T = Trace of Precipitation, MM = Missing Value Source: NWS Daily Summary

Daily Weather History Graph

Daily Weather History Graph

Search for Another Location

Airport or City:

Trip Planner

Search our weather history database for the weather conditions in past years. The results will help you decide how hot, cold, wet, or windy it might be!

Date:

Astronomy

Jul. 10, 2014 Rise Set
Actual Time 6:16 AM EDT 9:05 PM EDT
Civil Twilight 5:44 AM EDT 9:37 PM EDT
Nautical Twilight 5:04 AM EDT 10:18 PM EDT
Astronomical Twilight 4:18 AM EDT 11:04 PM EDT
Moon 7:17 PM EDT (7/10) 4:27 AM EDT (7/10)
Length of Visible Light 15h 53m
Length of Day
14h 49m
Waxing Gibbous, 95% of the Moon is Illuminated
Jul 10
Waxing Gibbous
Jul 12
Full
Jul 18
Last Quarter
Jul 26
New
Aug 3
First Quarter

Hourly Weather History & Observations

Time (EDT) Temp. Dew Point Humidity Pressure Visibility Wind Dir Wind Speed Gust Speed Precip Events Conditions
12:58 AM 64.4 °F 59.2 °F 83% 30.04 in 10.0 mi Calm Calm - N/A   Clear
1:58 AM 63.7 °F 59.9 °F 87% 30.04 in 10.0 mi North 3.5 mph - N/A   Clear
2:58 AM 63.3 °F 59.9 °F 89% 30.05 in 10.0 mi Calm Calm - N/A   Clear
3:58 AM 62.2 °F 58.8 °F 89% 30.06 in 10.0 mi North 1.2 mph - N/A   Clear
4:58 AM 62.1 °F 58.1 °F 87% 30.06 in 10.0 mi NNE 2.3 mph - N/A   Clear
5:58 AM 61.0 °F 57.7 °F 89% 30.07 in 10.0 mi NNE 1.2 mph - N/A   Clear
6:58 AM 59.4 °F 57.6 °F 94% 30.09 in 10.0 mi Calm Calm - N/A   Clear
7:58 AM 63.5 °F 58.1 °F 83% 30.10 in 10.0 mi North 4.6 mph - N/A   Clear
8:58 AM 67.1 °F 59.0 °F 75% 30.11 in 10.0 mi NNE 5.8 mph - N/A   Clear
9:58 AM 71.2 °F 61.2 °F 70% 30.12 in 10.0 mi NNW 3.5 mph - N/A   Clear
10:58 AM 74.5 °F 58.3 °F 57% 30.14 in 10.0 mi NW 6.9 mph - N/A   Partly Cloudy
11:58 AM 75.6 °F 58.5 °F 55% 30.15 in 10.0 mi NNW 6.9 mph - N/A   Clear
12:58 PM 76.6 °F 58.6 °F 54% 30.15 in 10.0 mi WNW 8.1 mph - N/A   Clear
1:58 PM 77.7 °F 57.7 °F 50% 30.15 in 10.0 mi Variable 5.8 mph - N/A   Clear
2:58 PM 79.0 °F 58.5 °F 49% 30.14 in 10.0 mi Variable 6.9 mph - N/A   Partly Cloudy
3:58 PM 79.2 °F 56.8 °F 46% 30.13 in 10.0 mi NNW 9.2 mph 17.3 mph N/A   Partly Cloudy
4:58 PM 78.4 °F 55.0 °F 44% 30.12 in 10.0 mi North 8.1 mph - N/A   Clear
5:58 PM 78.6 °F 54.7 °F 43% 30.11 in 10.0 mi Variable 6.9 mph - N/A   Clear
6:58 PM 78.4 °F 55.4 °F 45% 30.11 in 10.0 mi NNW 8.1 mph - N/A   Partly Cloudy
7:58 PM 76.8 °F 56.1 °F 49% 30.12 in 10.0 mi North 9.2 mph - N/A   Clear
8:58 PM 73.9 °F 56.8 °F 55% 30.13 in 10.0 mi North 6.9 mph - N/A   Clear
9:58 PM 69.8 °F 58.1 °F 66% 30.15 in 10.0 mi North 3.5 mph - N/A   Clear
10:58 PM 67.5 °F 57.9 °F 71% 30.17 in 10.0 mi NNE 2.3 mph - N/A   Clear
11:58 PM 65.1 °F 56.8 °F 75% 30.18 in 10.0 mi NNE 2.3 mph - N/A   Clear